Terminal Aerodrome Forecast
Issued by NWS Tulsa, OK

Home | Current Version | Previous Version | Text Only | Print | Product List | Glossary On
Versions: 1 2 3 4 5 6 7 8 9 10 11 12 13 14 15
000
FTUS44 KTSA 280500
TAFFSM
TAF
KFSM 280520Z 2806/2906 34009KT P6SM SCT120
     FM281500 35011KT P6SM FEW250
     FM290200 35004KT P6SM SKC=

USA.gov is the U.S. government's official web portal to all federal, state and local government web resources and services.